Time,TemperatureF,DewpointF,PressureIn,WindDirection,WindDirectionDegrees,WindSpeedMPH,WindSpeedGustMPH,Humidity,HourlyPrecipIn,Conditions,Clouds,dailyrainin,SoftwareType,DateUTC
2013-08-05 00:03:00,83.1,77.0,29.93,ESE,112,4.7,-999.0,82,-99.99,,,0.00,Acu-Link.com,2013-08-05 04:03:00,
2013-08-05 00:18:00,83.1,77.4,29.93,ESE,112,4.7,-999.0,83,-99.99,,,0.00,Acu-Link.com,2013-08-05 04:18:00,
2013-08-05 00:33:00,82.9,77.2,29.93,NE,45,3.8,-999.0,83,-99.99,,,0.00,Acu-Link.com,2013-08-05 04:33:00,
2013-08-05 00:48:00,82.9,77.2,29.93,ESE,112,5.8,-999.0,83,-99.99,,,0.00,Acu-Link.com,2013-08-05 04:48:00,
2013-08-05 01:03:00,82.8,77.1,29.92,East,90,4.3,-999.0,83,-99.99,,,0.00,Acu-Link.com,2013-08-05 05:03:00,
2013-08-05 01:19:00,82.8,77.1,29.92,SE,135,6.7,-999.0,83,-99.99,,,0.00,Acu-Link.com,2013-08-05 05:19:00,
2013-08-05 01:34:00,82.8,76.3,29.91,ESE,112,7.4,-999.0,81,-99.99,,,0.00,Acu-Link.com,2013-08-05 05:34:00,
2013-08-05 01:49:00,82.6,76.1,29.91,East,90,3.1,-999.0,81,-99.99,,,0.00,Acu-Link.com,2013-08-05 05:49:00,
2013-08-05 02:04:00,82.4,76.0,29.90,SE,135,7.4,-999.0,81,-99.99,,,0.00,Acu-Link.com,2013-08-05 06:04:00,
2013-08-05 02:19:00,82.4,76.0,29.90,SE,135,4.3,-999.0,81,-99.99,,,0.00,Acu-Link.com,2013-08-05 06:19:00,
2013-08-05 02:35:00,82.2,75.8,29.90,East,90,3.8,-999.0,81,-99.99,,,0.00,Acu-Link.com,2013-08-05 06:35:00,
2013-08-05 02:50:00,82.2,75.8,29.90,ESE,112,2.7,-999.0,81,-99.99,,,0.00,Acu-Link.com,2013-08-05 06:50:00,
2013-08-05 03:05:00,82.2,76.2,29.90,ESE,112,4.7,-999.0,82,-99.99,,,0.00,Acu-Link.com,2013-08-05 07:05:00,
2013-08-05 03:20:00,82.0,76.0,29.90,ESE,112,4.3,-999.0,82,-99.99,,,0.00,Acu-Link.com,2013-08-05 07:20:00,
2013-08-05 03:36:00,82.0,75.2,29.90,ESE,112,4.3,-999.0,80,-99.99,,,0.00,Acu-Link.com,2013-08-05 07:36:00,
2013-08-05 03:51:00,81.9,76.2,29.91,East,90,3.8,-999.0,83,-99.99,,,0.00,Acu-Link.com,2013-08-05 07:51:00,
2013-08-05 04:06:00,81.7,76.7,29.91,ESE,112,2.7,-999.0,85,-99.99,,,0.00,Acu-Link.com,2013-08-05 08:06:00,
2013-08-05 04:21:00,81.3,76.0,29.91,East,90,4.7,-999.0,84,-99.99,,,0.00,Acu-Link.com,2013-08-05 08:21:00,
2013-08-05 04:36:00,81.5,76.2,29.91,SE,135,2.7,-999.0,84,-99.99,,,0.00,Acu-Link.com,2013-08-05 08:36:00,
2013-08-05 04:51:00,81.5,76.2,29.90,ESE,112,2.2,-999.0,84,-99.99,,,0.00,Acu-Link.com,2013-08-05 08:51:00,
2013-08-05 05:06:00,79.5,72.0,29.91,SSE,157,5.8,-999.0,78,-99.99,,,0.00,Acu-Link.com,2013-08-05 09:06:00,
2013-08-05 05:22:00,78.3,72.7,29.92,SSE,157,1.6,-999.0,83,-99.99,,,0.00,Acu-Link.com,2013-08-05 09:22:00,
2013-08-05 06:54:00,78.3,72.7,29.91,SW,225,2.2,-999.0,83,-99.99,,,0.00,Acu-Link.com,2013-08-05 10:54:00,
2013-08-05 07:10:00,78.3,72.7,29.91,SW,225,2.2,-999.0,83,-99.99,,,0.00,Acu-Link.com,2013-08-05 11:10:00,
2013-08-05 07:25:00,78.3,72.7,29.92,SW,225,2.2,-999.0,83,-99.99,,,0.00,Acu-Link.com,2013-08-05 11:25:00,
2013-08-05 07:40:00,78.3,72.7,29.92,SW,225,2.2,-999.0,83,-99.99,,,0.00,Acu-Link.com,2013-08-05 11:40:00,
2013-08-05 07:55:00,78.3,72.7,29.92,SW,225,2.2,-999.0,83,-99.99,,,0.00,Acu-Link.com,2013-08-05 11:55:00,
2013-08-05 08:10:00,78.3,72.7,29.92,SW,225,2.2,-999.0,83,-99.99,,,0.00,Acu-Link.com,2013-08-05 12:10:00,
2013-08-05 08:26:00,78.3,72.7,29.92,SW,225,2.2,-999.0,83,-99.99,,,0.00,Acu-Link.com,2013-08-05 12:26:00,
2013-08-05 08:41:00,78.3,72.7,29.92,SW,225,2.2,-999.0,83,-99.99,,,0.00,Acu-Link.com,2013-08-05 12:41:00,
2013-08-05 09:11:00,78.3,72.7,29.92,SW,225,2.2,-999.0,83,-99.99,,,0.00,Acu-Link.com,2013-08-05 13:11:00,
2013-08-05 09:26:00,78.3,72.7,29.92,SW,225,2.2,-999.0,83,-99.99,,,0.00,Acu-Link.com,2013-08-05 13:26:00,
2013-08-05 09:42:00,78.3,72.7,29.92,SW,225,2.2,-999.0,83,-99.99,,,0.00,Acu-Link.com,2013-08-05 13:42:00,
2013-08-05 09:56:00,78.3,72.7,29.92,SW,225,2.2,-999.0,83,-99.99,,,0.00,Acu-Link.com,2013-08-05 13:56:00,
2013-08-05 10:12:00,78.3,72.7,29.92,SW,225,2.2,-999.0,83,-99.99,,,0.00,Acu-Link.com,2013-08-05 14:12:00,
2013-08-05 10:27:00,78.3,72.7,29.92,SW,225,2.2,-999.0,83,-99.99,,,0.00,Acu-Link.com,2013-08-05 14:27:00,
2013-08-05 10:42:00,78.3,72.7,29.92,SW,225,2.2,-999.0,83,-99.99,,,0.00,Acu-Link.com,2013-08-05 14:42:00,
2013-08-05 10:57:00,78.3,72.7,29.92,SW,225,2.2,-999.0,83,-99.99,,,0.00,Acu-Link.com,2013-08-05 14:57:00,
2013-08-05 11:13:00,78.3,72.7,29.92,SW,225,2.2,-999.0,83,-99.99,,,0.00,Acu-Link.com,2013-08-05 15:13:00,
2013-08-05 11:28:00,78.3,72.7,29.92,SW,225,2.2,-999.0,83,-99.99,,,0.00,Acu-Link.com,2013-08-05 15:28:00,
2013-08-05 11:43:00,78.3,72.7,29.92,SW,225,2.2,-999.0,83,-99.99,,,0.00,Acu-Link.com,2013-08-05 15:43:00,
2013-08-05 11:59:00,78.3,72.7,29.92,SW,225,2.2,-999.0,83,-99.99,,,0.00,Acu-Link.com,2013-08-05 15:59:00,
2013-08-05 12:13:00,78.3,72.7,29.92,SW,225,2.2,-999.0,83,-99.99,,,0.00,Acu-Link.com,2013-08-05 16:13:00,
2013-08-05 12:29:00,78.3,72.7,29.92,SW,225,2.2,-999.0,83,-99.99,,,0.00,Acu-Link.com,2013-08-05 16:29:00,
2013-08-05 12:44:00,78.3,72.7,29.92,SW,225,2.2,-999.0,83,-99.99,,,0.00,Acu-Link.com,2013-08-05 16:44:00,
2013-08-05 12:59:00,78.3,72.7,29.92,SW,225,2.2,-999.0,83,-99.99,,,0.00,Acu-Link.com,2013-08-05 16:59:00,
2013-08-05 13:15:00,78.3,72.7,29.92,SW,225,2.2,-999.0,83,-99.99,,,0.00,Acu-Link.com,2013-08-05 17:15:00,
2013-08-05 13:30:00,78.3,72.7,29.92,SW,225,2.2,-999.0,83,-99.99,,,0.00,Acu-Link.com,2013-08-05 17:30:00,
2013-08-05 14:00:00,78.3,72.7,29.92,SW,225,2.2,-999.0,83,-99.99,,,0.00,Acu-Link.com,2013-08-05 18:00:00,
2013-08-05 14:15:00,78.3,72.7,29.92,SW,225,2.2,-999.0,83,-99.99,,,0.00,Acu-Link.com,2013-08-05 18:15:00,
2013-08-05 14:31:00,78.3,72.7,29.92,SW,225,2.2,-999.0,83,-99.99,,,0.00,Acu-Link.com,2013-08-05 18:31:00,
2013-08-05 14:46:00,78.3,72.7,29.92,SW,225,2.2,-999.0,83,-99.99,,,0.00,Acu-Link.com,2013-08-05 18:46:00,
2013-08-05 15:16:00,78.3,72.7,29.92,SW,225,2.2,-999.0,83,-99.99,,,0.00,Acu-Link.com,2013-08-05 19:16:00,
2013-08-05 15:31:00,78.3,72.7,29.92,SW,225,2.2,-999.0,83,-99.99,,,0.00,Acu-Link.com,2013-08-05 19:31:00,
2013-08-05 15:47:00,78.3,72.7,29.92,SW,225,2.2,-999.0,83,-99.99,,,0.00,Acu-Link.com,2013-08-05 19:47:00,
2013-08-05 16:02:00,78.3,72.7,29.92,SW,225,2.2,-999.0,83,-99.99,,,0.00,Acu-Link.com,2013-08-05 20:02:00,
2013-08-05 16:17:00,78.3,72.7,29.92,SW,225,2.2,-999.0,83,-99.99,,,0.00,Acu-Link.com,2013-08-05 20:17:00,
2013-08-05 16:32:00,78.3,72.7,29.92,SW,225,2.2,-999.0,83,-99.99,,,0.00,Acu-Link.com,2013-08-05 20:32:00,
2013-08-05 16:48:00,78.3,72.7,29.92,SW,225,2.2,-999.0,83,-99.99,,,0.00,Acu-Link.com,2013-08-05 20:48:00,
2013-08-05 17:03:00,78.3,72.7,29.92,SW,225,2.2,-999.0,83,-99.99,,,0.00,Acu-Link.com,2013-08-05 21:03:00,
2013-08-05 17:18:00,78.3,72.7,29.92,SW,225,2.2,-999.0,83,-99.99,,,0.00,Acu-Link.com,2013-08-05 21:18:00,
2013-08-05 17:33:00,78.3,72.7,29.92,SW,225,2.2,-999.0,83,-99.99,,,0.00,Acu-Link.com,2013-08-05 21:33:00,
2013-08-05 17:48:00,85.3,75.6,29.87,ESE,112,6.3,-999.0,73,-99.99,,,0.07,Acu-Link.com,2013-08-05 21:48:00,
2013-08-05 18:04:00,85.1,75.9,29.87,ESE,112,5.8,-999.0,74,-99.99,,,0.07,Acu-Link.com,2013-08-05 22:04:00,
2013-08-05 18:20:00,84.6,76.1,29.87,SSE,157,5.1,-999.0,76,-99.99,,,0.07,Acu-Link.com,2013-08-05 22:20:00,
2013-08-05 18:35:00,84.4,76.0,29.87,ESE,112,5.1,-999.0,76,-99.99,,,0.07,Acu-Link.com,2013-08-05 22:35:00,
2013-08-05 18:51:00,84.4,75.2,29.88,ESE,112,5.8,-999.0,74,-99.99,,,0.07,Acu-Link.com,2013-08-05 22:51:00,
2013-08-05 19:06:00,84.0,75.2,29.89,ESE,112,3.8,-999.0,75,-99.99,,,0.07,Acu-Link.com,2013-08-05 23:06:00,
2013-08-05 19:21:00,83.7,75.7,29.89,NE,45,3.8,-999.0,77,-99.99,,,0.07,Acu-Link.com,2013-08-05 23:21:00,
2013-08-05 19:51:00,83.7,74.9,29.91,NE,45,2.2,-999.0,75,-99.99,,,0.07,Acu-Link.com,2013-08-05 23:51:00,
2013-08-05 20:07:00,83.5,74.7,29.92,East,90,4.3,-999.0,75,-99.99,,,0.07,Acu-Link.com,2013-08-06 00:07:00,
2013-08-05 20:22:00,83.5,75.1,29.92,ESE,112,5.8,-999.0,76,-99.99,,,0.07,Acu-Link.com,2013-08-06 00:22:00,
2013-08-05 20:37:00,83.3,75.3,29.91,East,90,3.1,-999.0,77,-99.99,,,0.07,Acu-Link.com,2013-08-06 00:37:00,
2013-08-05 20:52:00,83.3,75.3,29.91,ESE,112,2.7,-999.0,77,-99.99,,,0.07,Acu-Link.com,2013-08-06 00:52:00,
2013-08-05 21:07:00,83.3,75.3,29.91,ESE,112,3.8,-999.0,77,-99.99,,,0.07,Acu-Link.com,2013-08-06 01:07:00,
2013-08-05 21:23:00,83.1,75.5,29.92,ENE,67,1.6,-999.0,78,-99.99,,,0.07,Acu-Link.com,2013-08-06 01:23:00,
2013-08-05 21:38:00,82.9,75.7,29.93,West,270,2.7,-999.0,79,-99.99,,,0.07,Acu-Link.com,2013-08-06 01:38:00,
2013-08-05 21:53:00,82.9,75.7,29.93,ESE,112,3.1,-999.0,79,-99.99,,,0.07,Acu-Link.com,2013-08-06 01:53:00,
2013-08-05 22:08:00,82.9,75.7,29.94,ESE,112,2.7,-999.0,79,-99.99,,,0.07,Acu-Link.com,2013-08-06 02:08:00,
2013-08-05 22:24:00,82.8,75.6,29.94,ESE,112,3.8,-999.0,79,-99.99,,,0.07,Acu-Link.com,2013-08-06 02:24:00,
2013-08-05 22:39:00,82.6,75.4,29.94,NW,315,2.7,-999.0,79,-99.99,,,0.07,Acu-Link.com,2013-08-06 02:39:00,
2013-08-05 22:54:00,82.6,75.4,29.94,NNE,22,0.0,-999.0,79,-99.99,,,0.07,Acu-Link.com,2013-08-06 02:54:00,
2013-08-05 23:09:00,82.2,75.4,29.94,NE,45,1.6,-999.0,80,-99.99,,,0.07,Acu-Link.com,2013-08-06 03:09:00,
2013-08-05 23:24:00,82.0,75.2,29.94,SSE,157,2.2,-999.0,80,-99.99,,,0.07,Acu-Link.com,2013-08-06 03:24:00,
2013-08-05 23:40:00,81.7,75.3,29.93,East,90,0.0,-999.0,81,-99.99,,,0.07,Acu-Link.com,2013-08-06 03:40:00,